Location: Le Rocchette
(44.3500°N, 7.8333°E)
Time: 03:11:51
(UTC+00:00)

PAYLOAD A - Pass Details

Date: 17 November 2019
Orbit: 693 x 831 km, 98.3° (Epoch: 08 December)

Event Time Altitude Azimuth Distance (km) Brightness Sun altitude
Rises 04:11:15 0° 9° (N) 3,327 7.4 -24.1°
Reaches altitude 10° 04:13:36 10° 6° (N) 2,407 6.6 -23.7°
Maximum altitude 04:18:51 58° 289° (WNW) 960 4.1 -22.7°
Enters shadow 04:20:31 40° 233° (SW) 1,194 4.6 -22.4°
